Regional Weather Roundup
Issued by NWS Newport/Morehead, NC

Current Version | Previous Version | Graphics & Text | Print | Product List | Glossary Off
Versions: 1 2 3 4 5 6 7 8 9 10 11 12 13 14 15 16 17 18 19 20 21 22 23 24 25 26 27 28 29 30 31 32 33 34 35 36 37 38 39 40 41 42 43 44 45 46 47 48

000
ASUS42 KMHX 191525
RWRMHX
WEATHER ROUNDUP FOR EASTERN NORTH CAROLINA
NATIONAL WEATHER SERVICE NEWPORT/MOREHEAD CITY NC
1100 AM EDT SAT AUG 19 2017

NOTE: "FAIR" INDICATES FEW OR NO CLOUDS BELOW 12,000 FEET
WITH NO SIGNIFICANT WEATHER AND/OR OBSTRUCTIONS TO VISIBILITY

NCZ015>017-031-032-045>047-102-103-191600-
NORTH COAST

CITY           SKY/WX    TMP DP  RH WIND       PRES   REMARKS
EDENTON        PTSUNNY   86  75  69 CALM      29.94S
ELIZABETH CITY CLOUDY    86  77  74 W7        29.93R
KITTY HAWK     MOSUNNY   84  76  78 CALM      29.94R
MANTEO         PTSUNNY   84  76  78 NW7       29.95R

$$

NCZ045>047-081-094-103-104-191600-
CENTRAL COAST

CITY           SKY/WX    TMP DP  RH WIND       PRES   REMARKS
FRISCO         PTSUNNY   86  79  79 SW9       29.94R

$$

NCZ095-097-098-100-101-191600-
SOUTHERN COAST

CITY           SKY/WX    TMP DP  RH WIND       PRES   REMARKS
BEAUFORT       SUNNY     87  82  85 SW12G20   29.95R HX 106
CEDAR ISLAND   NOT AVBL
JACKSONVILLE   MOSUNNY   87  80  79 W3        29.94S HX 103
PINEY ISLAND   MOSUNNY  N/A N/A N/A W9        29.93F
WILMINGTON     MOSUNNY   89  78  70 SW6       29.95R HX 103


$$

NCZ011>013-027>030-043-044-078>080-089-090>093-098-191600-
COASTAL PLAIN

CITY           SKY/WX    TMP DP  RH WIND       PRES   REMARKS
AHOSKIE          N/A     82  73  74 CALM      29.93S
CLINTON        SUNNY     87  74  64 N5        29.96S
ELIZABETHTOWN  NOT AVBL
GOLDSBORO      SUNNY     86  75  70 W6        29.94S
GREENVILLE     SUNNY     86  72  62 N5        29.96S
HAVELOCK       MOSUNNY   88  77  69 W7        29.95S HX 100
KENANSVILLE    SUNNY     88  72  58 CALM      29.96R
KINSTON        NOT AVBL
NEW BERN       PTSUNNY   87  79  76 VRB5      29.95S HX 101
RICHLANDS      PTSUNNY   88  78  72 W7        29.96R HX 101
ROCKY MOUNT    SUNNY     84  71  65 NW5       29.95S
WASHINGTON     MOSUNNY   87  72  61 W5        29.95R
WHITEVILLE     SUNNY     88  77  69 CALM      29.95S

$$

AMZ130-135-150-152-154-156-158-170-250-252-270-ANZ085-086-088-633-658-670-191600-
MARINE OBSERVATIONS

STATION/POSITION TIME  TEMP    WIND        PRES    WAVE   SWELL
                       AIR SEA DIR/SP/G            HT/PER HT/PER
                 (UTC) (F)     (DEG/KT/KT) (MB)    (FT/S) (FT/S)
CHESAPEAKE LIGHT NOT AVBL
64 E VA BEACH    1450   78 77  290/  8/  8 1013.7    4/ 6   3/ 6
DUCK             1500   81 68  360/  3/  4 1013.4
2 E DUCK         1500      78                N/A     2/ 8
OREGON INLET     1500   84 83  300/  7/ 10 1013.7
13E OREGON INLT  1448      78                N/A     3/ 6   2/ 6
HATTERAS CG      1500   85 83  260/ 10/ 13 1013.9
DIAMOND BUOY     1450   84 84  250/ 16/ 19 1013.8    5/ 6   2/ 9
CAPE LOOKOUT     1500   86     230/  9/ 14 1013.9
BEAUFORT LAB     1500   87 82  240/  4/ 11 1013.5
30 SE NEW RVR IN 1408   83 83  240/ 12/ 16 1014.3
30 SE NEW RVR IN 1513      83                N/A     4/ 6
27 SE WRIGHTSVLE 1508   84 83  210/ 14/ 19 1014.6
5 SE WRIGHTSVLE  1508   85 83  220/  8/ 14 1014.3
225 S CAPE HAT   1450   84 84  230/ 12/ 14 1017.3    4/ 5   2/ 6
41 SE CHARLESTON 1510   84 84  220/ 10/ 12 1014.8

$$




USA.gov is the U.S. government's official web portal to all federal, state and local government web resources and services.